GW3513 Weather Reports


Display with metric or nautical units.
time (UTC)temp
F
wind
direction
speed
MPH
gust
MPH
rain 1hr
in
rain 24hr
in
rain mn
in
humidity
%
barometer
mb
20260509171425 90 160 0.0 0.0 0.00 0.00 0.00 34 1014.4
20260509170921 88 160 0.0 0.0 0.00 0.00 0.00 33 1014.4
20260509170417 88 160 0.0 0.0 0.00 0.00 0.00 33 1014.4
20260509165913 88 160 0.0 0.0 0.00 0.00 0.00 38 1014.6
20260509165407 90 160 0.0 0.0 0.00 0.00 0.00 34 1014.5
20260509164903 91 160 0.0 0.0 0.00 0.00 0.00 32 1014.3
20260509164359 91 160 0.0 0.0 0.00 0.00 0.00 36 1014.2
20260509163855 91 160 0.0 0.0 0.00 0.00 0.00 35 1014.3
20260509163352 89 160 0.0 0.0 0.00 0.00 0.00 36 1014.3
20260509162851 91 160 0.0 0.0 0.00 0.00 0.00 35 1014.3
20260509162344 89 160 0.0 0.0 0.00 0.00 0.00 35 1014.3
20260509161841 89 160 0.0 0.0 0.00 0.00 0.00 34 1014.2
20260509161337 86 160 0.0 0.0 0.00 0.00 0.00 40 1014.3
20260509160833 86 160 0.0 0.0 0.00 0.00 0.00 39 1014.3
20260509160329 85 160 0.0 0.0 0.00 0.00 0.00 41 1014.4
20260509155824 85 160 0.0 0.0 0.00 0.00 0.00 39 1014.3
20260509155321 85 160 0.0 0.0 0.00 0.00 0.00 40 1014.2
20260509154817 84 160 0.0 0.0 0.00 0.00 0.00 45 1014.1
20260509154313 83 160 0.0 0.0 0.00 0.00 0.00 45 1014.3
20260509153811 86 160 0.0 0.0 0.00 0.00 0.00 42 1014.1
20260509153307 84 160 0.0 0.0 0.00 0.00 0.00 45 1014.0
20260509152804 81 160 0.0 0.0 0.00 0.00 0.00 53 1014.1
20260509152300 82 160 0.0 0.0 0.00 0.00 0.00 48 1014.0
20260509151757 82 160 0.0 0.0 0.00 0.00 0.00 49 1014.2
20260509151253 79 160 0.0 0.0 0.00 0.00 0.00 53 1014.2
20260509150752 79 161 0.0 0.0 0.00 0.00 0.00 57 1014.2
20260509150250 80 160 0.0 0.0 0.00 0.00 0.00 52 1014.1
20260509145746 79 161 0.0 0.0 0.00 0.00 0.00 52 1014.2
20260509145246 78 160 0.0 0.0 0.00 0.00 0.00 57 1014.0
20260509144743 78 160 0.0 0.0 0.00 0.00 0.00 57 1014.1
20260509144239 76 161 0.0 0.0 0.00 0.00 0.00 61 1014.0
20260509143737 77 161 0.0 0.0 0.00 0.00 0.00 58 1014.0
20260509143234 76 161 0.0 0.0 0.00 0.00 0.00 60 1014.1
20260509142730 75 160 0.0 0.0 0.00 0.00 0.00 63 1014.1
20260509142226 74 160 0.0 0.0 0.00 0.00 0.00 64 1014.1
20260509141722 73 161 0.0 0.0 0.00 0.00 0.00 68 1013.9
20260509141220 71 161 0.0 0.0 0.00 0.00 0.00 76 1014.0
20260509140716 70 161 0.0 0.0 0.00 0.00 0.00 75 1013.8
20260509140214 69 161 0.0 0.0 0.00 0.00 0.00 76 1014.0
20260509135711 69 161 0.0 0.0 0.00 0.00 0.00 81 1013.7
20260509135209 67 161 0.0 0.0 0.00 0.00 0.00 85 1013.7
20260509134705 66 161 0.0 0.0 0.00 0.00 0.00 83 1013.7
20260509134203 65 161 0.0 0.0 0.00 0.00 0.00 89 1013.8
20260509133700 64 161 0.0 0.0 0.00 0.00 0.00 93 1013.8
20260509133157 63 161 0.0 0.0 0.00 0.00 0.00 96 1013.6
20260509132655 62 161 0.0 0.0 0.00 0.00 0.00 96 1013.7
20260509132153 61 161 0.0 0.0 0.00 0.00 0.00 99 1013.6
20260509131649 60 161 0.0 0.0 0.00 0.00 0.00 99 1013.8
20260509131146 60 161 0.0 0.0 0.00 0.00 0.00 99 1013.7
20260509130642 59 161 0.0 0.0 0.00 0.00 0.00 99 1013.8
20260509130138 59 161 0.0 0.0 0.00 0.00 0.00 99 1013.5
20260509125635 59 161 0.0 0.0 0.00 0.00 0.00 99 1013.5
20260509125132 58 161 0.0 0.0 0.00 0.00 0.00 99 1013.5
20260509124628 58 161 0.0 0.0 0.00 0.00 0.00 99 1013.7
20260509124125 58 161 0.0 0.0 0.00 0.00 0.00 99 1013.5
20260509123623 57 161 0.0 0.0 0.00 0.00 0.00 99 1013.7
20260509123120 57 161 0.0 0.0 0.00 0.00 0.00 99 1013.5
20260509122615 56 161 0.0 0.0 0.00 0.00 0.00 99 1013.7
20260509122113 55 161 0.0 0.0 0.00 0.00 0.00 99 1013.7
20260509121609 55 161 0.0 0.0 0.00 0.00 0.00 99 1013.5
20260509121107 53 161 0.0 0.0 0.00 0.00 0.00 99 1013.5
20260509120605 53 161 0.0 0.0 0.00 0.00 0.00 99 1013.5
20260509115600 51 161 0.0 0.0 0.00 0.00 0.00 99 1013.2
20260509115058 51 161 0.0 0.0 0.00 0.00 0.00 99 1013.1
20260509114555 50 161 0.0 0.0 0.00 0.00 0.00 99 1013.2
20260509114054 49 161 0.0 0.0 0.00 0.00 0.00 99 1012.8
20260509113552 49 160 0.0 0.0 0.00 0.00 0.00 99 1012.8
20260509113049 49 160 0.0 0.0 0.00 0.00 0.00 99 1012.9
20260509112546 49 160 0.0 0.0 0.00 0.00 0.00 99 1012.8
20260509112043 49 160 0.0 0.0 0.00 0.00 0.00 99 1012.9
20260509111540 49 160 0.0 0.0 0.00 0.00 0.00 99 1012.9
20260509111037 49 160 0.0 0.0 0.00 0.00 0.00 99 1012.9
20260509110534 49 160 0.0 0.0 0.00 0.00 0.00 99 1012.9
20260509110031 49 160 0.0 0.0 0.00 0.00 0.00 99 1012.7
20260509105529 49 160 0.0 0.0 0.00 0.00 0.00 99 1012.6
20260509105026 49 160 0.0 0.0 0.00 0.00 0.00 99 1012.6
20260509104523 49 160 0.0 0.0 0.00 0.00 0.00 99 1012.9
20260509104020 49 160 0.0 0.0 0.00 0.00 0.00 99 1012.8
20260509103518 49 160 0.0 0.0 0.00 0.00 0.00 99 1012.9
20260509103016 49 160 0.0 0.0 0.00 0.00 0.00 99 1012.8
20260509102513 49 160 0.0 0.0 0.00 0.00 0.00 99 1012.7
20260509102009 50 160 0.0 0.0 0.00 0.00 0.00 99 1012.7
20260509101506 50 160 0.0 0.0 0.00 0.00 0.00 99 1012.7
20260509101003 50 160 0.0 0.0 0.00 0.00 0.00 99 1012.8
20260509100500 50 160 0.0 0.0 0.00 0.00 0.00 99 1012.7
20260509095957 51 160 0.0 0.0 0.00 0.00 0.00 99 1012.7
20260509095453 52 160 0.0 0.0 0.00 0.00 0.00 99 1012.8
20260509094951 52 160 0.0 0.0 0.00 0.00 0.00 99 1012.9
20260509094447 51 160 0.0 0.0 0.00 0.00 0.00 99 1013.0
20260509093945 51 160 0.0 0.0 0.00 0.00 0.00 99 1012.8
20260509093442 52 160 0.0 0.0 0.00 0.00 0.00 99 1013.1
20260509092940 53 160 0.0 0.0 0.00 0.00 0.00 99 1013.0
20260509092438 52 160 0.0 0.0 0.00 0.00 0.00 99 1013.0
20260509091936 50 160 0.0 0.0 0.00 0.00 0.00 99 1013.1
20260509091433 50 160 0.0 0.0 0.00 0.00 0.00 99 1012.9
20260509090930 50 160 0.0 0.0 0.00 0.00 0.00 99 1012.8
20260509090427 50 160 0.0 0.0 0.00 0.00 0.00 99 1013.0
20260509085925 50 160 0.0 0.0 0.00 0.00 0.00 99 1012.9
20260509085421 49 160 0.0 0.0 0.00 0.00 0.00 99 1012.8
20260509084917 50 160 0.0 0.0 0.00 0.00 0.00 99 1012.8
20260509084415 50 160 0.0 0.0 0.00 0.00 0.00 99 1012.7
20260509083912 51 160 0.0 0.0 0.00 0.00 0.00 99 1012.5
20260509083409 52 160 0.0 0.0 0.00 0.00 0.00 99 1012.7
20260509082906 52 160 0.0 0.0 0.00 0.00 0.00 99 1012.8
20260509082403 52 160 0.0 0.0 0.00 0.00 0.00 99 1012.6
20260509081900 52 160 0.0 0.0 0.00 0.00 0.00 99 1012.8
20260509081357 50 160 0.0 0.0 0.00 0.00 0.00 99 1012.7
20260509080855 50 161 0.0 0.0 0.00 0.00 0.00 99 1012.7
20260509080352 50 161 0.0 0.0 0.00 0.00 0.00 99 1012.8
20260509075851 50 161 0.0 0.0 0.00 0.00 0.00 99 1012.7
20260509075347 50 161 0.0 0.0 0.00 0.00 0.00 99 1012.9
20260509074844 51 161 0.0 0.0 0.00 0.00 0.00 99 1012.7
20260509074342 51 161 0.0 0.0 0.00 0.00 0.00 99 1012.9
20260509073838 51 161 0.0 0.0 0.00 0.00 0.00 99 1012.9
20260509073335 51 161 0.0 0.0 0.00 0.00 0.00 99 1012.9
20260509072831 51 161 0.0 0.0 0.00 0.00 0.00 99 1012.8
20260509072328 51 161 0.0 0.0 0.00 0.00 0.00 99 1013.1
20260509071825 51 161 0.0 0.0 0.00 0.00 0.00 99 1012.9
20260509071322 51 161 0.0 0.0 0.00 0.00 0.00 99 1012.8
20260509070819 51 161 0.0 0.0 0.00 0.00 0.00 99 1013.0
20260509070315 51 161 0.0 0.0 0.00 0.00 0.00 99 1012.9
20260509065812 51 161 0.0 0.0 0.00 0.00 0.00 99 1013.0
20260509065308 51 161 0.0 0.0 0.00 0.00 0.00 99 1013.0
20260509064804 51 161 0.0 0.0 0.00 0.00 0.00 99 1012.9
20260509064302 51 161 0.0 0.0 0.00 0.00 0.00 99 1013.1
20260509063759 51 161 0.0 0.0 0.00 0.00 0.00 99 1013.1
20260509063255 52 161 0.0 0.0 0.00 0.00 0.00 99 1013.0
20260509062753 52 161 0.0 0.0 0.00 0.00 0.00 99 1013.2
20260509062249 53 161 0.0 0.0 0.00 0.00 0.00 99 1013.1
20260509061747 52 161 0.0 0.0 0.00 0.00 0.00 99 1013.0
20260509061245 51 161 0.0 0.0 0.00 0.00 0.00 99 1013.0
20260509060741 52 161 0.0 0.0 0.00 0.00 0.00 99 1013.0
20260509060238 52 161 0.0 0.0 0.00 0.00 0.00 99 1013.5
20260509055734 53 161 0.0 0.0 0.00 0.00 0.00 99 1013.1
20260509055230 53 161 0.0 0.0 0.00 0.00 0.00 99 1013.1
20260509054726 53 161 0.0 0.0 0.00 0.00 0.00 99 1013.5
20260509054223 53 161 0.0 0.0 0.00 0.00 0.00 99 1013.1
20260509053722 53 161 0.0 0.0 0.00 0.00 0.00 99 1013.1
20260509053218 53 161 0.0 0.0 0.00 0.00 0.00 99 1013.2
20260509052716 53 161 0.0 0.0 0.00 0.00 0.00 98 1013.5
20260509052214 54 161 0.0 0.0 0.00 0.00 0.00 99 1013.3
20260509051711 54 161 0.0 0.0 0.00 0.00 0.00 97 1013.2
20260509051209 55 161 0.0 0.0 0.00 0.00 0.00 97 1013.2
20260509050706 55 161 0.0 0.0 0.00 0.00 0.00 98 1013.1
20260509050202 55 161 0.0 0.0 0.00 0.00 0.00 98 1013.1
20260509045659 56 161 0.0 0.0 0.00 0.00 0.00 97 1013.2
20260509045156 56 161 0.0 0.0 0.00 0.00 0.00 97 1013.5
20260509044654 56 161 0.0 0.0 0.00 0.00 0.00 97 1013.0
20260509044151 57 161 0.0 0.0 0.00 0.00 0.00 96 1013.3
20260509043647 57 161 0.0 0.0 0.00 0.00 0.00 95 1013.2
20260509043143 58 161 0.0 0.0 0.00 0.00 0.00 96 1013.2
20260509042640 58 161 0.0 0.0 0.00 0.00 0.00 95 1013.2
20260509042135 58 161 0.0 0.0 0.00 0.00 0.00 95 1013.2
20260509041632 58 161 0.0 0.0 0.00 0.00 0.00 95 1013.1
20260509041130 59 161 0.0 0.0 0.00 0.00 0.00 94 1013.3
20260509040628 59 161 0.0 0.0 0.00 0.00 0.00 94 1013.1
20260509040125 59 161 0.0 0.0 0.00 0.00 0.00 94 1013.2
20260509035622 59 161 0.0 0.0 0.00 0.00 0.00 93 1013.1
20260509035118 59 161 0.0 0.0 0.00 0.00 0.00 93 1013.0
20260509034616 60 161 0.0 0.0 0.00 0.00 0.00 92 1012.9
20260509034113 60 161 0.0 0.0 0.00 0.00 0.00 91 1013.1
20260509033610 60 161 0.0 0.0 0.00 0.00 0.00 91 1013.2
20260509033107 60 161 0.0 0.0 0.00 0.00 0.00 91 1013.1
20260509032604 61 161 0.0 0.0 0.00 0.00 0.00 90 1013.2
20260509032101 61 161 0.0 0.0 0.00 0.00 0.00 90 1013.2
20260509031559 61 161 0.0 0.0 0.00 0.00 0.00 89 1013.2
20260509031056 62 161 0.0 0.0 0.00 0.00 0.00 88 1013.3
20260509030554 62 161 0.0 0.0 0.00 0.00 0.00 87 1013.1
20260509030051 62 161 0.0 0.0 0.00 0.00 0.00 86 1013.0
20260509025547 62 161 0.0 0.0 0.00 0.00 0.00 85 1012.9
20260509025042 63 161 0.0 0.0 0.00 0.00 0.00 83 1012.7
20260509024539 62 161 0.0 0.0 0.00 0.00 0.00 82 1012.7
20260509024035 62 161 0.0 0.0 0.00 0.00 0.00 83 1012.4
20260509023533 62 161 0.0 0.0 0.00 0.00 0.00 83 1012.0
20260509023029 62 161 0.0 0.0 0.00 0.00 0.00 82 1012.1
20260509022526 62 161 0.0 0.0 0.00 0.00 0.00 83 1012.1
20260509022024 61 161 0.0 0.0 0.00 0.00 0.00 83 1012.0
20260509021521 61 161 0.0 0.0 0.00 0.00 0.00 89 1011.9
20260509021017 61 161 0.0 0.0 0.00 0.00 0.00 91 1011.3
20260509020516 63 161 0.0 0.0 0.00 0.00 0.00 88 1010.6
20260509020012 65 161 0.0 0.0 0.00 0.00 0.00 79 1010.2
20260509015511 65 161 0.0 0.0 0.00 0.00 0.00 74 1010.3
20260509015008 65 161 0.0 0.0 0.00 0.00 0.00 70 1010.1
20260509014505 64 161 0.0 0.0 0.00 0.00 0.00 73 1010.2
20260509014001 65 161 0.0 0.0 0.00 0.00 0.00 74 1010.0
20260509013458 65 161 0.0 0.0 0.00 0.00 0.00 73 1009.9
20260509012953 64 161 0.0 0.0 0.00 0.00 0.00 73 1009.8
20260509012450 64 161 0.0 0.0 0.00 0.00 0.00 74 1009.7
20260509011947 63 160 0.0 0.0 0.00 0.00 0.00 75 1009.7
20260509011445 63 161 0.0 0.0 0.00 0.00 0.00 78 1009.4
20260509010942 63 161 0.0 0.0 0.00 0.00 0.00 77 1009.5
20260509010440 63 160 0.0 0.0 0.00 0.00 0.00 78 1009.3
20260509005936 64 160 0.0 0.0 0.00 0.00 0.00 78 1009.4
20260509005434 64 161 0.0 0.0 0.00 0.00 0.00 77 1009.8
20260509004928 63 161 0.0 0.0 0.00 0.00 0.00 79 1010.1
20260509004426 63 160 0.0 0.0 0.00 0.00 0.00 80 1009.9
20260509003924 63 160 0.0 0.0 0.00 0.00 0.00 81 1009.8
20260509003421 62 160 0.0 0.0 0.00 0.00 0.00 82 1009.9
20260509002917 62 160 0.0 0.0 0.00 0.00 0.00 84 1009.7
20260509002416 62 160 0.0 0.0 0.00 0.00 0.00 85 1009.8
20260509001912 61 160 0.0 0.0 0.00 0.00 0.00 89 1009.9
20260509001409 61 160 0.0 0.0 0.00 0.00 0.00 89 1009.7
20260509000906 62 160 0.0 0.0 0.00 0.00 0.00 86 1009.9
20260509000404 62 160 0.0 0.0 0.00 0.00 0.00 84 1009.9
20260508235859 62 160 0.0 0.0 0.00 0.00 0.00 85 1009.9
20260508235357 61 160 0.0 0.0 0.00 0.00 0.00 88 1009.7
20260508234854 62 160 0.0 0.0 0.00 0.00 0.00 86 1010.0
20260508234350 61 160 0.0 0.0 0.00 0.00 0.00 86 1010.2
20260508233849 60 160 0.0 2.0 0.00 0.00 0.00 92 1010.3
20260508233348 59 160 0.0 0.0 0.00 0.00 0.00 92 1010.8
20260508232844 59 160 0.0 0.0 0.00 0.00 0.00 94 1010.9
20260508232340 59 161 0.0 0.0 0.00 0.00 0.00 95 1011.0
20260508231839 60 161 0.0 0.0 0.00 0.00 0.00 95 1011.3
20260508231335 61 161 0.0 0.0 0.00 0.00 0.00 97 1011.7
20260508230832 63 161 0.0 0.0 0.00 0.00 0.00 91 1012.1
20260508230328 68 161 0.0 0.0 0.00 0.00 0.00 78 1012.3
20260508225826 68 161 0.0 0.0 0.00 0.00 0.00 69 1012.0
20260508225322 69 160 0.0 0.0 0.00 0.00 0.00 66 1012.0
20260508224821 70 160 0.0 0.0 0.00 0.00 0.00 65 1011.6
20260508224318 71 160 0.0 0.0 0.00 0.00 0.00 64 1011.7
20260508223815 71 160 0.0 0.0 0.00 0.00 0.00 57 1011.6
20260508223312 72 160 0.0 0.0 0.00 0.00 0.00 57 1011.5
20260508222810 74 160 0.0 0.0 0.00 0.00 0.00 60 1011.2
20260508222307 76 160 0.0 0.0 0.00 0.00 0.00 45 1011.3
20260508221803 77 160 0.0 0.0 0.00 0.00 0.00 45 1011.3
20260508221259 78 160 0.0 0.0 0.00 0.00 0.00 47 1011.2
20260508220755 77 160 0.0 0.0 0.00 0.00 0.00 49 1011.2
20260508220252 77 161 0.0 0.0 0.00 0.00 0.00 48 1011.3
20260508215749 76 161 0.0 0.0 0.00 0.00 0.00 44 1011.0
20260508215245 78 161 0.0 0.0 0.00 0.00 0.00 42 1010.8
20260508214743 80 161 0.0 0.0 0.00 0.00 0.00 43 1010.8
20260508214240 80 161 0.0 0.0 0.00 0.00 0.00 44 1010.9
20260508213736 81 161 0.0 0.0 0.00 0.00 0.00 38 1010.9
20260508213233 92 161 0.0 0.0 0.00 0.00 0.00 31 1010.6
20260508212729 96 161 0.0 0.0 0.00 0.00 0.00 29 1010.5
20260508212226 93 161 0.0 0.0 0.00 0.00 0.00 30 1010.6
20260508211721 92 161 0.0 0.0 0.00 0.00 0.00 34 1010.6
20260508211217 88 161 0.0 0.0 0.00 0.00 0.00 30 1010.8
20260508210715 89 161 0.0 0.0 0.00 0.00 0.00 34 1010.8
20260508210212 89 161 0.0 0.0 0.00 0.00 0.00 33 1010.9
20260508205709 91 160 0.0 0.0 0.00 0.00 0.00 34 1010.6
20260508205205 88 160 0.0 0.0 0.00 0.00 0.00 35 1010.9
20260508204701 88 160 0.0 0.0 0.00 0.00 0.00 36 1011.0
20260508204158 90 160 0.0 0.0 0.00 0.00 0.00 32 1011.4
20260508203654 91 160 0.0 0.0 0.00 0.00 0.00 33 1011.2
20260508203150 89 160 0.0 0.0 0.00 0.00 0.00 34 1011.6
20260508202646 91 160 0.0 0.0 0.00 0.00 0.00 32 1011.5
20260508202144 89 160 0.0 0.0 0.00 0.00 0.00 32 1011.7
20260508201640 88 160 0.0 0.0 0.00 0.00 0.00 37 1011.6
20260508201137 87 160 0.0 0.0 0.00 0.00 0.00 34 1011.6
20260508200634 88 160 0.0 0.0 0.00 0.00 0.00 37 1011.7
20260508200130 88 160 0.0 0.0 0.00 0.00 0.00 35 1011.8
20260508195627 87 160 0.0 0.0 0.00 0.00 0.00 36 1012.0
20260508195123 86 160 0.0 0.0 0.00 0.00 0.00 37 1012.1
20260508194620 86 160 0.0 0.0 0.00 0.00 0.00 40 1012.2
20260508194117 87 160 0.0 0.0 0.00 0.00 0.00 38 1012.1
20260508193614 85 160 0.0 0.0 0.00 0.00 0.00 37 1012.5
20260508193110 86 160 0.0 0.0 0.00 0.00 0.00 37 1012.5
20260508192607 87 160 0.0 0.0 0.00 0.00 0.00 41 1012.7
20260508192104 86 160 0.0 0.0 0.00 0.00 0.00 35 1012.6
20260508191601 85 160 0.0 0.0 0.00 0.00 0.00 35 1012.6
20260508191058 84 160 0.0 0.0 0.00 0.00 0.00 41 1012.6
20260508190555 85 160 0.0 0.0 0.00 0.00 0.00 38 1012.6
20260508190051 84 160 0.0 0.0 0.00 0.00 0.00 39 1012.9
20260508185549 85 160 0.0 0.0 0.00 0.00 0.00 38 1012.9
20260508185046 84 160 0.0 0.0 0.00 0.00 0.00 40 1013.1
20260508184543 83 160 0.0 0.0 0.00 0.00 0.00 41 1013.0
20260508184040 85 160 0.0 0.0 0.00 0.00 0.00 40 1013.1
20260508183536 84 160 0.0 0.0 0.00 0.00 0.00 43 1013.1
20260508183032 83 160 0.0 0.0 0.00 0.00 0.00 42 1013.1
20260508182529 82 160 0.0 0.0 0.00 0.00 0.00 47 1013.2
20260508182026 82 160 0.0 0.0 0.00 0.00 0.00 43 1013.3
20260508181521 82 160 0.0 0.0 0.00 0.00 0.00 44 1013.2
20260508181019 84 160 0.0 0.0 0.00 0.00 0.00 36 1013.3
20260508180515 84 160 0.0 0.0 0.00 0.00 0.00 42 1013.8
20260508180012 84 160 0.0 0.0 0.00 0.00 0.00 41 1013.8
20260508175508 84 160 0.0 0.0 0.00 0.00 0.00 42 1014.0
20260508175006 83 160 0.0 0.0 0.00 0.00 0.00 44 1014.1
20260508174503 82 160 0.0 0.0 0.00 0.00 0.00 45 1014.4
20260508174000 82 160 0.0 0.0 0.00 0.00 0.00 45 1014.4
20260508173457 81 160 0.0 0.0 0.00 0.00 0.00 45 1014.4
20260508172953 82 160 0.0 0.0 0.00 0.00 0.00 42 1014.5
20260508172450 82 160 0.0 0.0 0.00 0.00 0.00 43 1014.5
20260508171946 82 160 0.0 0.0 0.00 0.00 0.00 46 1014.4